Weather History for Wilmington, NC

Change the Weather History Date:

Tuesday, March 12, 2013

  Actual Average Record
Temperature  
Mean Temperature 64 °F 54 °F  
Max Temperature 71 °F 65 °F 87 °F (1990)
Min Temperature 56 °F 43 °F 25 °F (1916)
Degree Days  
Heating Degree Days 1 11  
Month to date heating degree days 199 152  
Since 1 July heating degree days 2006 2081  
Cooling Degree Days 0 0  
Month to date cooling degree days 0 0  
Year to date cooling degree days 12 5  
Growing Degree Days 14 (Base 50)    
Moisture  
Dew Point 60 °F    
Average Humidity 83    
Maximum Humidity 93    
Minimum Humidity 73    
Precipitation  
Precipitation 0.49 in 0.14 in 1.55 in (1944)
Month to date precipitation 0.56 1.68  
Year to date precipitation 7.83 9.06  
Snow  
Snow 0.00 in 0.00 in 0.90 in (1960)
Month to date snowfall 0.0 0.0  
Since 1 July snowfall T 1.5  
Snow Depth 0.00 in    
Sea Level Pressure  
Sea Level Pressure 29.87 in    
Wind  
Wind Speed 8 mph (SSW)    
Max Wind Speed 16 mph    
Max Gust Speed 23 mph    
Visibility 8 miles    
Events Rain    
T = Trace of Precipitation, MM = Missing Value Source: NWS Daily Summary

Daily Weather History Graph

Daily Weather History Graph

Search for Another Location

Airport:

Trip Planner

Search our weather history database for the weather conditions in past years. The results will help you decide how hot, cold, wet, or windy it might be!

Date:

Astronomy

Mar. 12, 2013 Rise Set
Actual Time 7:25 AM EDT 7:17 PM EDT
Civil Twilight 7:00 AM EDT 7:42 PM EDT
Nautical Twilight 6:31 AM EDT 8:11 PM EDT
Astronomical Twilight 6:02 AM EDT 8:40 PM EDT
Moon 7:35 AM EDT (3/12) 8:24 PM EDT (3/12)
Length of Visible Light 12h 41m
Length of Day
11h 51m
New Moon, 1% of the Moon is Illuminated
Mar 12
New Moon
Mar 19
First Quarter
Mar 27
Full
Apr 3
Last Quarter
Apr 10
New

Hourly Weather History & Observations

Time (EDT) Temp. Dew Point Humidity Pressure Visibility Wind Dir Wind Speed Gust Speed Precip Events Conditions
12:53 AM 63.0 °F 55.0 °F 75% 29.96 in 10.0 mi South 9.2 mph - N/A   Overcast
1:53 AM 63.0 °F 57.0 °F 81% 29.96 in 9.0 mi South 8.1 mph - 0.00 in Rain Light Rain
2:53 AM 63.0 °F 57.0 °F 81% 29.93 in 10.0 mi South 9.2 mph - 0.00 in   Overcast
3:53 AM 64.0 °F 59.0 °F 84% 29.91 in 10.0 mi SSE 8.1 mph - 0.00 in   Mostly Cloudy
4:53 AM 63.0 °F 57.9 °F 84% 29.89 in 9.0 mi SSE 5.8 mph - 0.00 in Rain Light Rain
5:53 AM 62.1 °F 57.9 °F 86% 29.89 in 10.0 mi SSE 4.6 mph - 0.00 in   Mostly Cloudy
6:53 AM 61.0 °F 59.0 °F 93% 29.89 in 10.0 mi SSE 4.6 mph - 0.02 in Rain Light Rain
7:53 AM 63.0 °F 60.1 °F 90% 29.89 in 8.0 mi South 12.7 mph 18.4 mph 0.02 in Rain Light Rain
8:53 AM 64.0 °F 62.1 °F 93% 29.89 in 4.0 mi SSW 5.8 mph - 0.08 in Rain Rain
8:58 AM 62.6 °F 62.6 °F 100% 29.89 in 2.5 mi SSW 6.9 mph - 0.03 in Rain Heavy Rain
9:02 AM 62.6 °F 62.6 °F 100% 29.89 in 1.2 mi SW 4.6 mph - 0.04 in Rain Rain
9:13 AM 62.6 °F 62.6 °F 100% 29.89 in 1.5 mi South 5.8 mph - 0.15 in Rain Rain
9:17 AM 62.6 °F 62.6 °F 100% 29.89 in 2.0 mi South 5.8 mph - 0.16 in Rain Rain
9:34 AM 64.4 °F 62.6 °F 94% 29.89 in 3.0 mi South 11.5 mph - 0.24 in Rain Rain
9:53 AM 64.0 °F 62.1 °F 93% 29.89 in 4.0 mi South 9.2 mph - 0.29 in Rain Rain
10:47 AM 64.4 °F 60.8 °F 88% 29.89 in 10.0 mi South 11.5 mph - 0.08 in Rain Light Rain
10:53 AM 64.0 °F 61.0 °F 90% 29.88 in 10.0 mi South 10.4 mph 21.9 mph 0.08 in   Overcast
11:51 AM 64.4 °F 60.8 °F 88% 29.89 in 9.0 mi SSW 10.4 mph - 0.00 in Rain Light Rain
11:53 AM 64.0 °F 61.0 °F 90% 29.89 in 9.0 mi SSW 9.2 mph - 0.00 in Rain Light Rain
12:53 PM 64.9 °F 61.0 °F 87% 29.88 in 9.0 mi SSW 10.4 mph - 0.00 in Rain Light Rain
1:53 PM 66.0 °F 61.0 °F 84% 29.85 in 10.0 mi SSW 9.2 mph - 0.00 in   Mostly Cloudy
2:53 PM 66.9 °F 61.0 °F 81% 29.82 in 10.0 mi SW 11.5 mph - N/A   Overcast
3:53 PM 70.0 °F 60.1 °F 71% 29.79 in 10.0 mi SW 9.2 mph - N/A   Overcast
4:53 PM 68.0 °F 59.0 °F 73% 29.78 in 10.0 mi SW 16.1 mph 23.0 mph N/A   Mostly Cloudy
5:53 PM 69.1 °F 60.1 °F 73% 29.78 in 10.0 mi SW 10.4 mph - N/A   Clear
6:53 PM 66.9 °F 60.1 °F 79% 29.80 in 10.0 mi SW 5.8 mph - N/A   Clear
7:53 PM 62.1 °F 59.0 °F 90% 29.82 in 10.0 mi SSW 4.6 mph - N/A   Clear
8:53 PM 60.1 °F 57.9 °F 93% 29.83 in 10.0 mi SSW 5.8 mph - N/A   Clear
9:53 PM 59.0 °F 57.0 °F 93% 29.85 in 8.0 mi SW 8.1 mph - N/A   Clear
10:07 PM 59.0 °F 57.2 °F 94% 29.85 in 6.0 mi WSW 6.9 mph - N/A   Partly Cloudy
10:53 PM 57.9 °F 55.9 °F 93% 29.87 in 8.0 mi West 3.5 mph - N/A   Clear
11:53 PM 57.0 °F 55.0 °F 93% 29.89 in 10.0 mi NW 5.8 mph - N/A   Clear